User: anonymous   Login
Location: Unspecified
(0.0000°N, 0.0000°E)
Time: 21:53:20
(UTC+00:00)
Language:

COSMOS 2429 - Orbit

View from above orbital plane
View from above orbital plane
View from above satellite
View from above satellite

Ground track
Ground track

The orbit data is extracted from the following two-line orbital elements,

1 32052U 07038A   17082.71213529 +.00000035 +00000-0 +21575-4 0  9990
2 32052 082.9836 170.7381 0037055 291.8549 067.8668 13.74885388478202
Epoch (UTC): 23 March 2017 17:05:28
Eccentricity: 0.0037055
inclination: 82.9836°
perigee height: 955 km
apogee height: 1009 km
right ascension of ascending node: 170.7381°
argument of perigee: 291.8549°
revolutions per day: 13.74885388
mean anomaly at epoch: 67.8668°
orbit number at epoch: 47820

The dashed part of the orbit path shows where the satellite is in the earth's shadow,  

DLR